This is the latest recevied weather packets stored in our database for station/object YO8SDE-8. If no packets are shown the sender has not sent any weather packets the latest 10 day(s).
| Time | Temp. | Humidity | Pressure | Rain* | Wind** | Luminosity | Snow |
|---|---|---|---|---|---|---|---|
| 1777944660 | 7.78° C | 74% | 1002.9 hPa | 0 mm | - | - | - |
| 1777944360 | 7.78° C | 76% | 1002.9 hPa | 0 mm | - | - | - |
| 1777944060 | 6.67° C | 75% | 1002.9 hPa | 0 mm | - | - | - |
| 1777943760 | 6.67° C | 75% | 1002.9 hPa | 0 mm | - | - | - |
| 1777943460 | 6.11° C | 74% | 1002.9 hPa | 0 mm | - | - | - |
| 1777943160 | 6.67° C | 74% | 1002.7 hPa | 0 mm | - | - | - |
| 1777942860 | 6.67° C | 74% | 1002.7 hPa | 0 mm | - | - | - |
| 1777942560 | 6.67° C | 75% | 1002.7 hPa | 0 mm | - | - | - |
| 1777942260 | 6.67° C | 74% | 1002.6 hPa | 0 mm | - | - | - |
| 1777941960 | 6.11° C | 73% | 1002.6 hPa | 0 mm | - | - | - |
| 1777941660 | 6.11° C | 72% | 1002.5 hPa | 0 mm | - | - | - |
| 1777941360 | 6.11° C | 73% | 1002.7 hPa | 0 mm | - | - | - |
| 1777941060 | 5.56° C | 72% | 1002.8 hPa | 0 mm | - | - | - |
| 1777940760 | 7.22° C | 70% | 1002.8 hPa | 0 mm | - | - | - |
| 1777940460 | 7.22° C | 71% | 1002.8 hPa | 0 mm | - | - | - |
| 1777940160 | 7.78° C | 71% | 1002.8 hPa | 0 mm | - | - | - |
| 1777939860 | 8.33° C | 72% | 1002.7 hPa | 0 mm | - | - | - |
| 1777939560 | 8.33° C | 72% | 1002.7 hPa | 0 mm | - | - | - |
| 1777939260 | 8.89° C | 71% | 1002.8 hPa | 0 mm | - | - | - |
| 1777938960 | 8.89° C | 70% | 1002.8 hPa | 0 mm | - | - | - |
| 1777938660 | 8.89° C | 71% | 1002.9 hPa | 0 mm | - | - | - |
| 1777938361 | 8.89° C | 71% | 1002.9 hPa | 0 mm | - | - | - |
| 1777938060 | 9.44° C | 70% | 1003 hPa | 0 mm | - | - | - |
| 1777937760 | 9.44° C | 70% | 1003 hPa | 0 mm | - | - | - |
| 1777937461 | 9.44° C | 68% | 1003 hPa | 0 mm | - | - | - |
* Rain latest hour (hover to see other rain measurements)
** Current wind speed in m/s (hover to see current wind gust speed)